Regional Weather Roundup
Issued by NWS

Home | Current Version | Previous Version | Text Only | Print | Product List | Glossary Off
Versions: 1 2 3 4 5 6 7 8 9 10 11 12 13 14 15 16 17 18 19 20 21 22 23 24 25 26 27 28 29 30 31 32 33 34 35 36 37 38 39 40 41 42 43 44 45 46 47 48 49 50

901
ASUS43 KFSD 111510
RWRSD

WEATHER ROUNDUP FOR SOUTH DAKOTA
NATIONAL WEATHER SERVICE SIOUX FALLS SD
900 AM CST MON DEC 11 2017

NOTE: "FAIR" INDICATES FEW OR NO CLOUDS BELOW 12,000 FEET WITH NO
SIGNIFICANT WEATHER AND/OR OBSTRUCTIONS TO VISIBILITY.


SDZ001>005-009-010-012>017-111600-
NORTHWEST AND NORTH CENTRAL SOUTH DAKOTA

CITY           SKY/WX    TMP DP  RH WIND       PRES   REMARKS
BUFFALO          N/A     37  27  67 NW33G43   30.16R
FAITH            N/A     38  29  70 NW35G44   30.16R
MOBRIDGE       CLOUDY    40  31  70 NW31G39   30.04R
$$

SDZ012>016-024>037-041>051-057-063-072>074-111600-
SOUTHWEST AND SOUTH CENTRAL SOUTH DAKOTA

CITY           SKY/WX    TMP DP  RH WIND       PRES   REMARKS
RAPID CTY ARPT PTCLDY    43  19  38 NW40G54   30.19R
PIERRE         CLOUDY    42  30  62 NW36G41   30.10R
CUSTER         CLOUDY    38   4  24 N18G38    30.16S
ELLSWORTH AFB  MOCLDY    42  19  39 NW37G49   30.20R
PHILIP         CLOUDY    42  27  55 NW32G44   30.16S
PINE RIDGE     PTCLDY    40  20  44 W7        30.23R
SPEARFISH      FAIR      37  19  48 W16G30    30.30R
WINNER         CLOUDY    44  28  53 NW32G45   30.09R
$$

SDZ004>011-016>023-039-040-111600-
NORTHEAST SOUTH DAKOTA

CITY           SKY/WX    TMP DP  RH WIND       PRES   REMARKS
ABERDEEN       CLOUDY    39  34  82 N26G37    29.98R
WATERTOWN      CLOUDY    35  34  96 NW25G37   29.88R WCI  23
BROOKINGS      MIX PCPN  37  33  85 NW26G32   29.86R
SISSETON         N/A     36  32  85 N26G43    29.89R
$$

SDZ017-020-022-023-036>040-048>070-111600-
SOUTHEAST SOUTH DAKOTA

CITY           SKY/WX    TMP DP  RH WIND       PRES   REMARKS
SIOUX FALLS    CLOUDY    41  34  76 NW28G39   29.88R
HURON          CLOUDY    41  33  73 NW26G40   29.97R
CHAMBERLAIN    CLOUDY    44  32  63 NW30G38   30.07R
MITCHELL       CLOUDY    42  33  70 NW37G43   29.98R
YANKTON        CLOUDY    43  30  60 NW33G44   29.96R
$$

ABBREVIATIONS USED IN REMARKS
   TC - TEMPERATURE IN CELSIUS
  WCI - WIND CHILL INDEX
   HX - HEAT INDEX
  VSB - VISIBILITY





USA.gov is the U.S. government's official web portal to all federal, state and local government web resources and services.